Date String (YYYY-MM-DD hh:mm:ss) UTC,Instrument flags,Ambient pressure (hPa),Sample flow (lpm),Bypass flow (lpm),Sample temperature (°C),Ambient temperature (°C),ASC tube jacket temperature (°C),LED temperature (°C),Box temperature (°C),Sample RH (%),Span deviation,Mass concentration (μg/m³),Mass concentration (μg/m³),Mass concentration (μg/m³)
DateTimeUTC,F1_M11,P_M11,Q1_M11,Q2_M11,T1_M11,T2_M11,T3_M11,T4_M11,T5_M11,U1_M11,ZSPAN_M11,X0_M11,X2_M11,X1_M11
2022-11-28 08:00:00,,0812.9,5.00,0.00,21.9,20.5,00.0,30.8,23.7,08.8,0000.0,0001.01,0000.54,0000.37
2022-11-28 08:01:00,,0812.8,5.01,0.00,21.9,20.6,00.0,30.8,23.7,08.9,0000.0,0000.98,0000.54,0000.39
2022-11-28 08:02:00,,0812.8,5.01,0.00,21.9,20.6,00.0,30.8,23.8,08.7,0000.0,0000.96,0000.54,0000.40
2022-11-28 08:03:00,,0812.8,5.01,0.00,21.9,20.6,00.0,30.8,23.8,09.3,0000.0,0000.97,0000.55,0000.42
2022-11-28 08:04:00,,0812.8,4.99,0.00,21.9,20.6,00.0,30.8,23.8,09.7,0000.0,0001.16,0000.55,0000.44
2022-11-28 08:05:00,,0812.6,4.98,0.00,21.9,20.5,00.0,30.8,23.8,09.9,0000.0,0001.75,0000.56,0000.46
2022-11-28 08:06:00,,0812.6,4.99,0.00,21.9,20.5,00.0,30.8,23.7,10.0,0000.0,0001.94,0000.60,0000.49
2022-11-28 08:07:00,,0812.6,5.00,0.00,21.9,20.5,00.0,30.8,23.7,09.9,0000.0,0002.04,0000.65,0000.52
2022-11-28 08:08:00,,0812.5,5.00,0.00,21.9,20.5,00.0,30.8,23.7,10.2,0000.0,0002.12,0000.69,0000.54
2022-11-28 08:09:00,,0812.5,5.01,0.00,21.9,20.5,00.0,30.8,23.7,10.1,0000.0,0002.16,0000.69,0000.56
2022-11-28 08:10:00,,0812.6,5.00,0.00,21.9,21.0,00.0,30.7,23.8,10.0,0000.0,0002.88,0000.70,0000.56
2022-11-28 08:11:00,,0812.7,5.00,0.00,22.0,21.9,00.0,30.7,24.0,09.5,0000.0,0003.04,0000.68,0000.57
2022-11-28 08:12:00,,0812.8,4.99,0.00,22.1,22.0,00.0,30.8,24.1,09.6,0000.0,0003.04,0000.69,0000.57
2022-11-28 08:13:00,,0812.9,5.00,0.00,22.1,21.7,00.0,30.8,24.1,09.6,0000.0,0003.06,0000.70,0000.58
2022-11-28 08:14:00,,0812.8,5.00,0.00,22.1,21.5,00.0,30.9,24.1,09.8,0000.0,0003.22,0000.75,0000.60
2022-11-28 08:15:00,,0812.8,5.01,0.00,22.1,21.4,00.0,30.9,24.1,09.5,0000.0,0003.35,0000.78,0000.60
2022-11-28 08:16:00,,0812.8,5.01,0.00,22.1,21.3,00.0,30.9,24.0,09.6,0000.0,0002.49,0000.78,0000.60
2022-11-28 08:17:00,,0812.6,5.00,0.00,22.1,21.2,00.0,30.9,24.0,09.7,0000.0,0002.25,0000.78,0000.61
2022-11-28 08:18:00,,0812.7,4.99,0.00,22.2,21.2,00.0,31.0,24.1,09.6,0000.0,0002.40,0000.79,0000.61
2022-11-28 08:19:00,,0812.7,4.99,0.00,22.2,21.1,00.0,31.0,24.1,09.8,0000.0,0002.43,0000.77,0000.60
2022-11-28 08:20:00,,0812.7,5.00,0.00,22.2,21.0,00.0,31.0,24.0,10.0,0000.0,0002.56,0000.78,0000.60
2022-11-28 08:21:00,,0812.7,5.01,0.00,22.1,20.9,00.0,31.0,24.0,10.0,0000.0,0002.77,0000.78,0000.61
2022-11-28 08:22:00,,0812.7,5.01,0.00,22.1,20.9,00.0,31.0,24.0,09.9,0000.0,0002.34,0000.81,0000.62
2022-11-28 08:23:00,,0812.8,5.00,0.00,22.1,20.8,00.0,31.0,24.0,09.9,0000.0,0002.94,0000.87,0000.64
2022-11-28 08:24:00,,0812.9,5.00,0.00,22.1,20.8,00.0,31.0,24.0,09.9,0000.0,0003.30,0000.91,0000.65
2022-11-28 08:25:00,,0812.5,4.99,0.00,22.1,20.8,00.0,31.0,24.0,09.6,0000.0,0003.24,0000.90,0000.65
2022-11-28 08:26:00,,0812.4,4.99,0.00,22.1,20.7,00.0,31.0,24.0,08.3,0000.0,0003.05,0000.86,0000.63
2022-11-28 08:27:00,,0812.3,5.00,0.00,22.1,20.6,00.0,31.0,23.9,07.5,0000.0,0003.00,0000.83,0000.61
2022-11-28 08:28:00,,0812.3,5.01,0.00,22.1,20.8,00.0,31.0,23.9,08.3,0000.0,0003.06,0000.81,0000.59
2022-11-28 08:29:00,,0812.4,5.01,0.00,22.2,21.7,00.0,31.0,24.1,08.0,0000.0,0002.99,0000.79,0000.57
2022-11-28 08:30:00,,0812.2,4.99,0.00,22.3,22.5,00.0,31.0,24.3,07.7,0000.0,0002.77,0000.74,0000.55
2022-11-28 08:31:00,,0812.3,4.99,0.00,22.3,22.2,00.0,31.0,24.4,07.4,0000.0,0002.67,0000.71,0000.52
2022-11-28 08:32:00,,0812.4,4.99,0.00,22.3,21.9,00.0,31.1,24.3,07.4,0000.0,0001.91,0000.67,0000.49
2022-11-28 08:33:00,,0812.5,5.00,0.00,22.3,21.7,00.0,31.1,24.3,07.2,0000.0,0001.80,0000.63,0000.45
2022-11-28 08:34:00,,0812.5,5.00,0.00,22.3,21.6,00.0,31.1,24.3,07.3,0000.0,0001.29,0000.57,0000.42
2022-11-28 08:35:00,,0812.5,5.00,0.00,22.4,21.4,00.0,31.2,24.3,07.4,0000.0,0000.88,0000.52,0000.39
2022-11-28 08:36:00,,0812.6,5.00,0.00,22.4,21.3,00.0,31.2,24.3,07.6,0000.0,0000.85,0000.49,0000.36
2022-11-28 08:37:00,,0812.7,5.01,0.00,22.4,21.2,00.0,31.2,24.2,07.7,0000.0,0000.82,0000.47,0000.34
2022-11-28 08:38:00,,0812.7,5.00,0.00,22.4,21.2,00.0,31.2,24.2,07.9,0000.0,0000.88,0000.49,0000.35
2022-11-28 08:39:00,,0812.7,5.00,0.00,22.4,21.1,00.0,31.2,24.2,08.3,0000.0,0000.79,0000.49,0000.36
2022-11-28 08:40:00,,0812.8,5.00,0.00,22.3,21.0,00.0,31.2,24.2,08.0,0000.0,0000.72,0000.48,0000.36
2022-11-28 08:41:00,,0812.7,5.00,0.00,22.3,20.9,00.0,31.2,24.2,07.9,0000.0,0000.72,0000.48,0000.37
2022-11-28 08:42:00,,0812.7,5.00,0.00,22.3,21.0,00.0,31.2,24.2,07.3,0000.0,0000.74,0000.48,0000.37
2022-11-28 08:43:00,,0812.4,5.00,0.00,22.3,21.0,00.0,31.2,24.2,07.4,0000.0,0000.97,0000.49,0000.36
2022-11-28 08:44:00,,0812.3,5.00,0.00,22.3,21.0,00.0,31.2,24.1,07.4,0000.0,0001.01,0000.49,0000.36
2022-11-28 08:45:00,,0812.4,5.00,0.00,22.3,20.9,00.0,31.2,24.1,07.4,0000.0,0001.18,0000.51,0000.36
2022-11-28 08:46:00,,0812.5,5.00,0.00,22.3,20.9,00.0,31.2,24.1,07.3,0000.0,0001.13,0000.49,0000.35
2022-11-28 08:47:00,,0812.4,5.00,0.00,22.3,20.9,00.0,31.2,24.1,07.4,0000.0,0001.09,0000.48,0000.35
2022-11-28 08:48:00,,0812.4,5.00,0.00,22.3,20.9,00.0,31.2,24.1,07.4,0000.0,0001.63,0000.49,0000.35
2022-11-28 08:49:00,,0812.5,5.01,0.00,22.3,20.9,00.0,31.2,24.1,07.3,0000.0,0001.92,0000.47,0000.35
2022-11-28 08:50:00,,0812.5,4.99,0.00,22.2,20.8,00.0,31.2,24.1,07.5,0000.0,0001.90,0000.45,0000.33
2022-11-28 08:51:00,,0812.6,4.99,0.00,22.2,20.7,00.0,31.2,24.0,07.9,0000.0,0002.01,0000.48,0000.33
2022-11-28 08:52:00,,0812.5,5.00,0.00,22.2,20.8,00.0,31.2,24.0,07.9,0000.0,0002.03,0000.47,0000.32
2022-11-28 08:53:00,,0812.4,5.00,0.00,22.2,20.8,00.0,31.2,24.0,07.8,0000.0,0001.99,0000.48,0000.32
2022-11-28 08:54:00,,0812.4,5.00,0.00,22.2,20.9,00.0,31.1,24.0,07.6,0000.0,0001.75,0000.46,0000.34
2022-11-28 08:55:00,,0812.5,5.01,0.00,22.2,20.9,00.0,31.1,24.1,07.4,0000.0,0001.68,0000.45,0000.34
2022-11-28 08:56:00,,0812.6,5.01,0.00,22.2,20.9,00.0,31.1,24.1,07.6,0000.0,0001.50,0000.41,0000.34
2022-11-28 08:57:00,,0812.5,4.99,0.00,22.2,20.9,00.0,31.2,24.1,07.6,0000.0,0001.56,0000.44,0000.34
2022-11-28 08:58:00,,0812.5,5.00,0.00,22.2,20.9,00.0,31.2,24.1,07.6,0000.0,0001.59,0000.46,0000.35
2022-11-28 08:59:00,,0812.5,4.99,0.00,22.2,20.8,00.0,31.1,24.1,07.5,0000.0,0001.32,0000.46,0000.35
